Flag for United Kingdom Weather past 2 weeks in Carlisle, England, United Kingdom

Now
51 °F

Cool.


Feels Like: N/A
Forecast: 55 / 62 °F
Wind: N/A

Location: Carlisle

Current Time: Jul 6, 2015 at 4:37:56 AM

Latest Report: Jul 6, 2015 at 3:00 AM


Visibility: 22 mi

Pressure: 29.96 "Hg

Humidity: 93%

Dew point: 49 °F

Location of CarlisleLocation

Historic Weather in Carlisle — Graph

°F

Carlisle temperature yesterday

Maximum temperature yesterday: 69 °F (at 2:00 PM)
Minimum temperature yesterday: 51 °F (at 5:00 AM)
Average temperature yesterday: 59 °F

Past Weeks' High & Low Weather Summary

 TemperatureHumidityPressure
High87 °F (Jul 1, 1:00 PM)99% (Jun 26, 4:00 AM)30.29 "Hg (Jun 26, 4:00 AM)
Low44 °F (Jun 23, 5:00 AM)36% (Jul 1, 12:00 PM)29.78 "Hg (Jun 22, 6:00 AM)
Average60 °F78%30.00 "Hg
* Reported Jun 21 3:00 AM — Jul 6 3:00 AM, Carlisle, Weather by CustomWeather, © 2015

Note: Actual official high and low records may vary slightly from our data, if they occured in-between our weather recording intervals... More about our weather records

Advertising

Carlisle weather history for previous 24 hours

 ConditionsComfort  
Time TempWeatherWind HumidityBarometerVisibility
3:00 AM
Mon, Jul 6
51 °FCool.N/A93%29.96 "Hg22 mi
2:00 AM50 °FCool.N/A95%29.95 "Hg22 mi
1:00 AM51 °FCool.N/A94%29.95 "Hg19 mi
12:00 AM53 °FCool.N/A88%29.95 "Hg19 mi
11:00 PM
Sun, Jul 5
54 °FCool.N/A85%29.94 "Hg17 mi
10:00 PM56 °FCool.N/A83%29.93 "Hg19 mi
9:00 PM58 °FCool.N/A85%29.92 "Hg13 mi
8:00 PM59 °FCool.N/A82%29.91 "Hg17 mi
7:00 PM60 °FCool.N/A80%29.90 "Hg17 mi
6:00 PM59 °FCool.N/A88%29.90 "Hg8 mi
5:00 PM64 °FMild.N/A64%29.90 "Hg18 mi
4:00 PM66 °FMild.N/A67%29.92 "Hg16 mi
3:00 PM64 °FMild.N/A72%29.93 "Hg16 mi
2:00 PM69 °FMild.N/A51%29.94 "Hg17 mi
1:00 PM68 °FMild.N/A51%29.96 "Hg18 mi
12:00 PM67 °FMild.N/A53%29.98 "Hg19 mi
11:00 AM66 °FMild.N/A59%29.99 "Hg17 mi
10:00 AM63 °FMild.N/A66%30.01 "Hg16 mi
9:00 AM60 °FCool.N/A71%30.04 "Hg15 mi
8:00 AM59 °FCool.N/A75%30.05 "Hg14 mi
7:00 AM56 °FCool.N/A82%30.05 "Hg14 mi
6:00 AM52 °FCool.N/A83%30.06 "Hg16 mi
5:00 AM51 °FCool.N/A82%30.06 "Hg17 mi
4:00 AM51 °FCool.N/A80%30.06 "Hg19 mi
Weather by CustomWeather, © 2015

See weather overviewHow to use our weather pages